Weather History for Rantoul, IL

Change the Weather History Date:

Saturday, November 16, 2013

  Actual Average (KCMI) Record (KCMI)
Temperature  
Mean Temperature 52 °F 42 °F  
Max Temperature 64 °F 51 °F 73 °F (2001)
Min Temperature 41 °F 32 °F 15 °F (1997)
Degree Days  
Heating Degree Days 12 23  
Month to date heating degree days 320  
Since 1 July heating degree days 781  
Cooling Degree Days 0 0  
Month to date cooling degree days 0  
Year to date cooling degree days 944  
Growing Degree Days 2 (Base 50)    
Moisture  
Dew Point 50 °F    
Average Humidity 84    
Maximum Humidity 94    
Minimum Humidity 66    
Precipitation  
Precipitation 0.00 in 0.12 in 0.54 in (2006)
Month to date precipitation 1.86  
Year to date precipitation 35.56  
Sea Level Pressure  
Sea Level Pressure 29.83 in    
Wind  
Wind Speed 14 mph (South)    
Max Wind Speed 26 mph    
Max Gust Speed 33 mph    
Visibility 8 miles    
Events Rain    
T = Trace of Precipitation, MM = Missing Value Source: NWS Daily Summary

Daily Weather History Graph

Daily Weather History Graph

Search for Another Location

Airport:

Trip Planner

Search our weather history database for the weather conditions in past years. The results will help you decide how hot, cold, wet, or windy it might be!

Date:

Astronomy

Nov. 16, 2013 Rise Set
Actual Time 6:39 AM CST 4:34 PM CST
Civil Twilight 6:10 AM CST 5:03 PM CST
Nautical Twilight 5:37 AM CST 5:36 PM CST
Astronomical Twilight 5:05 AM CST 6:08 PM CST
Moon 4:09 PM CST (11/16) 5:35 AM CST (11/16)
Length of Visible Light 10h 53m
Length of Day
9h 54m
Waxing Gibbous, 99% of the Moon is Illuminated
Nov 16
Waxing Gibbous
Nov 17
Full
Nov 25
Last Quarter
Dec 2
New
Dec 9
First Quarter

Hourly Weather History & Observations

Time (CST) Temp. Windchill Dew Point Humidity Pressure Visibility Wind Dir Wind Speed Gust Speed Precip Events Conditions
12:15 AM 41.9 °F 36.3 °F 38.7 °F 88% 29.99 in 7.0 mi South 9.2 mph - N/A   Overcast
12:35 AM 41.4 °F 36.2 °F 38.5 °F 89% 29.98 in 7.0 mi South 8.1 mph - N/A   Mostly Cloudy
12:55 AM 42.3 °F 36.8 °F 39.4 °F 90% 29.98 in 7.0 mi South 9.2 mph - N/A   Overcast
1:15 AM 43.3 °F 38.6 °F 40.3 °F 89% 29.97 in 7.0 mi SSE 8.1 mph - N/A   Overcast
1:35 AM 45.0 °F 40.6 °F 41.7 °F 88% 29.97 in 7.0 mi SSE 8.1 mph - N/A   Overcast
1:55 AM 45.9 °F 41.7 °F 42.3 °F 87% 29.96 in 7.0 mi SSE 8.1 mph - N/A   Overcast
2:15 AM 46.4 °F 41.5 °F 42.6 °F 87% 29.97 in 10.0 mi South 10.4 mph - N/A   Overcast
2:35 AM 46.6 °F - 42.8 °F 87% 29.96 in 7.0 mi SSE 9.2 mph - N/A   Overcast
2:55 AM 46.6 °F - 43.0 °F 87% 29.95 in 7.0 mi SSE 8.1 mph - N/A   Overcast
3:15 AM 46.6 °F - 43.2 °F 88% 29.95 in 7.0 mi SSE 10.4 mph - N/A   Overcast
3:35 AM 46.8 °F - 43.3 °F 88% 29.95 in 7.0 mi SSE 10.4 mph - N/A   Mostly Cloudy
3:55 AM 46.9 °F - 43.7 °F 88% 29.95 in 7.0 mi SSE 10.4 mph - N/A   Mostly Cloudy
4:15 AM 46.9 °F - 43.7 °F 88% 29.95 in 7.0 mi SSE 9.2 mph - N/A   Mostly Cloudy
4:35 AM 47.3 °F - 44.1 °F 88% 29.94 in 7.0 mi SSE 8.1 mph - N/A   Overcast
4:55 AM 48.2 °F - 45.5 °F 90% 29.95 in 5.0 mi SSE 12.7 mph - N/A   Overcast
5:15 AM 48.4 °F - 45.7 °F 90% 29.94 in 4.0 mi SSE 12.7 mph - N/A   Overcast
5:35 AM 48.9 °F - 46.2 °F 90% 29.94 in 4.0 mi SSE 12.7 mph - N/A   Overcast
5:55 AM 49.3 °F - 46.8 °F 91% 29.94 in 4.0 mi SSE 15.0 mph - N/A   Overcast
6:15 AM 49.5 °F - 46.8 °F 90% 29.93 in 4.0 mi SSE 13.8 mph - N/A   Overcast
6:35 AM 49.5 °F - 46.9 °F 91% 29.93 in 3.0 mi SSE 15.0 mph - N/A   Overcast
6:55 AM 49.5 °F - 47.3 °F 92% 29.94 in 3.0 mi South 16.1 mph - N/A   Overcast
7:15 AM 49.6 °F - 47.5 °F 92% 29.94 in 1.5 mi South 17.3 mph 20.7 mph N/A   Overcast
7:35 AM 49.8 °F - 47.8 °F 93% 29.94 in 1.0 mi South 17.3 mph - N/A   Overcast
7:55 AM 50.2 °F - 48.4 °F 94% 29.94 in 1.2 mi South 16.1 mph 23.0 mph N/A   Overcast
8:15 AM 50.9 °F - 48.7 °F 92% 29.94 in 1.5 mi South 19.6 mph - N/A   Overcast
8:35 AM 51.1 °F - 49.1 °F 93% 29.94 in 2.0 mi South 18.4 mph 24.2 mph N/A   Overcast
8:55 AM 51.4 °F - 49.5 °F 93% 29.93 in 2.0 mi South 16.1 mph 19.6 mph N/A   Overcast
9:15 AM 51.8 °F - 49.6 °F 92% 29.93 in 2.0 mi South 15.0 mph - N/A   Overcast
9:35 AM 52.2 °F - 50.0 °F 92% 29.93 in 2.5 mi South 15.0 mph - N/A   Overcast
9:55 AM 52.7 °F - 50.0 °F 91% 29.92 in 3.0 mi SSE 15.0 mph - N/A   Overcast
10:15 AM 53.2 °F - 50.2 °F 89% 29.90 in 4.0 mi SSE 12.7 mph - N/A   Overcast
10:35 AM 54.5 °F - 50.9 °F 88% 29.89 in 5.0 mi SSE 17.3 mph 21.9 mph N/A   Overcast
10:55 AM 55.4 °F - 50.9 °F 85% 29.88 in 7.0 mi SSE 19.6 mph 25.3 mph N/A   Overcast
11:15 AM 56.7 °F - 51.4 °F 83% 29.86 in 7.0 mi SSE 17.3 mph 24.2 mph N/A   Overcast
11:35 AM 57.9 °F - 51.8 °F 80% 29.84 in 10.0 mi South 18.4 mph 27.6 mph N/A   Overcast
11:55 AM 58.5 °F - 51.8 °F 79% 29.83 in 10.0 mi South 20.7 mph 28.8 mph N/A   Overcast
12:15 PM 60.3 °F - 52.2 °F 75% 29.82 in 10.0 mi South 24.2 mph 31.1 mph N/A   Mostly Cloudy
12:35 PM 61.5 °F - 52.0 °F 71% 29.81 in 10.0 mi South 25.3 mph 32.2 mph N/A   Mostly Cloudy
12:55 PM 61.9 °F - 51.6 °F 69% 29.81 in 10.0 mi South 20.7 mph 33.4 mph N/A   Scattered Clouds
1:15 PM 62.4 °F - 51.8 °F 68% 29.80 in 10.0 mi South 20.7 mph 33.4 mph N/A   Scattered Clouds
1:35 PM 64.0 °F - 52.3 °F 66% 29.79 in 10.0 mi South 20.7 mph 32.2 mph N/A   Clear
1:55 PM 63.5 °F - 51.8 °F 66% 29.79 in 10.0 mi South 23.0 mph 29.9 mph N/A   Clear
2:15 PM 63.0 °F - 51.8 °F 67% 29.78 in 10.0 mi South 20.7 mph 27.6 mph N/A   Clear
2:35 PM 62.8 °F - 52.0 °F 68% 29.78 in 10.0 mi South 19.6 mph 27.6 mph N/A   Mostly Cloudy
2:55 PM 62.6 °F - 52.2 °F 69% 29.78 in 10.0 mi South 20.7 mph 27.6 mph N/A   Overcast
3:15 PM 62.2 °F - 52.2 °F 70% 29.77 in 10.0 mi South 20.7 mph 28.8 mph N/A   Mostly Cloudy
3:35 PM 61.9 °F - 52.3 °F 71% 29.78 in 10.0 mi South 21.9 mph 29.9 mph N/A   Scattered Clouds
3:55 PM 61.5 °F - 52.5 °F 72% 29.76 in 10.0 mi South 21.9 mph 26.5 mph N/A   Scattered Clouds
4:15 PM 61.2 °F - 52.7 °F 74% 29.75 in 10.0 mi South 17.3 mph - N/A   Mostly Cloudy
4:35 PM 61.0 °F - 52.9 °F 75% 29.75 in 10.0 mi South 18.4 mph 25.3 mph N/A   Light Drizzle
4:55 PM 61.0 °F - 53.2 °F 76% 29.75 in 10.0 mi South 20.7 mph 24.2 mph N/A   Overcast
5:15 PM 60.4 °F - 54.1 °F 80% 29.73 in 10.0 mi South 19.6 mph 25.3 mph N/A   Light Drizzle
5:35 PM 60.3 °F - 54.1 °F 80% 29.72 in 10.0 mi SSE 20.7 mph 26.5 mph N/A   Overcast
5:55 PM 60.3 °F - 54.5 °F 81% 29.70 in 10.0 mi SSE 21.9 mph 26.5 mph N/A   Overcast
6:15 PM 60.1 °F - 55.4 °F 85% 29.69 in 10.0 mi South 23.0 mph 27.6 mph N/A   Overcast
6:35 PM 59.9 °F - 55.6 °F 86% 29.68 in 10.0 mi SSE 23.0 mph 31.1 mph N/A   Mostly Cloudy
6:55 PM 60.3 °F - 55.6 °F 85% 29.69 in 10.0 mi South 23.0 mph 28.8 mph N/A   Overcast
7:15 PM 60.4 °F - 55.6 °F 84% 29.69 in 10.0 mi South 26.5 mph 33.4 mph N/A   Overcast
7:35 PM 60.4 °F - 55.6 °F 84% 29.69 in 10.0 mi South 23.0 mph 31.1 mph N/A   Overcast
7:55 PM 60.1 °F - 56.3 °F 87% 29.70 in 10.0 mi South 18.4 mph 23.0 mph N/A Rain Light Rain
8:15 PM 61.0 °F - 56.5 °F 85% 29.72 in 10.0 mi South 17.3 mph - N/A   Overcast
8:35 PM 61.7 °F - 56.8 °F 84% 29.72 in 10.0 mi SSW 13.8 mph 23.0 mph N/A Rain Light Rain
8:55 PM 61.9 °F - 57.4 °F 85% 29.72 in 10.0 mi SSW 10.4 mph 24.2 mph N/A   Drizzle
9:15 PM 61.7 °F - 57.6 °F 86% 29.71 in 10.0 mi South 16.1 mph 21.9 mph N/A Rain Rain
9:35 PM 61.9 °F - 57.9 °F 87% 29.71 in 10.0 mi South 15.0 mph 23.0 mph N/A Rain Light Rain
9:55 PM 62.2 °F - 58.1 °F 86% 29.71 in 10.0 mi SSW 17.3 mph 24.2 mph N/A   Overcast
10:15 PM 62.2 °F - 57.9 °F 86% 29.70 in 10.0 mi South 17.3 mph - N/A   Overcast
10:35 PM 62.1 °F - 58.1 °F 87% 29.70 in 10.0 mi South 15.0 mph - N/A   Overcast
10:55 PM 62.2 °F - 58.1 °F 86% 29.69 in 10.0 mi SSW 12.7 mph 20.7 mph N/A   Overcast
11:15 PM 62.6 °F - 58.1 °F 85% 29.69 in 10.0 mi South 13.8 mph 18.4 mph N/A   Mostly Cloudy
11:35 PM 62.6 °F - 58.1 °F 85% 29.68 in 10.0 mi South 15.0 mph 19.6 mph N/A   Mostly Cloudy
11:55 PM 61.7 °F - 58.1 °F 88% 29.66 in 10.0 mi South 10.4 mph - N/A   Scattered Clouds